Regional Weather Roundup
Issued by NWS

Home | Current Version | Previous Version | Text Only | Print | Product List | Glossary On
Versions: 1 2 3 4 5 6 7 8 9 10 11 12 13 14 15 16 17 18 19 20 21 22 23 24 25 26 27 28 29 30 31 32 33 34 35 36 37 38 39 40 41 42 43 44 45 46 47 48 49 50
000
ASUS43 KTOP 271608
RWRKS

WEATHER ROUNDUP FOR KANSAS
NATIONAL WEATHER SERVICE GOODLAND KS
1100 AM CDT THU AUG 27 2015

NOTE:  "FAIR" INDICATES FEW OR NO CLOUDS BELOW 12,000 FEET WITH NO
SIGNIFICANT WEATHER AND/OR OBSTRUCTIONS TO VISIBILITY.

KSZ001>006-013>018-027>032-041>047-271700-
NORTHWEST KANSAS

CITY           SKY/WX    TMP DP  RH WIND       PRES   REMARKS
GOODLAND       MOSUNNY   84  49  29 W17G23    29.98R
HAYS           CLOUDY    93  61  33 SW21      29.92F
HILL CITY      PTSUNNY   91  59  33 SW16      29.90F
RUSSELL        PTSUNNY   88  61  40 S17G23    29.92F
$$

KSZ061>065-074>080-084>089-271700-
SOUTHWEST KANSAS

CITY           SKY/WX    TMP DP  RH WIND       PRES   REMARKS
DODGE CITY     PTSUNNY   85  59  41 SW16G22   30.01S
ELKHART          N/A     84  57  39 SW13        N/A
GARDEN CITY    MOSUNNY   87  56  34 SW21G28   29.99F
GREAT BEND     PTSUNNY   88  64  45 S15       29.95F
LIBERAL        SUNNY     88  61  40 SW22      30.05F
PRATT          MOSUNNY   86  61  42 SW14      30.02S
$$

KSZ066>073-081>083-090>101-271700-
SOUTHEAST KANSAS

CITY           SKY/WX    TMP DP  RH WIND       PRES   REMARKS
CHANUTE        CLOUDY    68  65  90 S8        30.12F
COFFEYVILLE    LGT RAIN  69  64  84 W10G21    30.12S
HUTCHINSON     MOSUNNY   83  69  62 SE16      30.02R
MEDICINE LODGE   N/A     86  67  52 S10       30.01S
NEWTON         SUNNY     79  63  57 SE24      30.07R
WICHITA INTL   PTSUNNY   80  66  62 SE18      30.05R
WICHITA JABRA  SUNNY     78  64  61 SE21G29   30.06R
WINFIELD       MOSUNNY   80  63  55 MISG      30.10R
$$

KSZ007>012-019>026-033>040-048>060-102>105-271700-
NORTHEAST KANSAS

CITY           SKY/WX    TMP DP  RH WIND       PRES   REMARKS
CONCORDIA        N/A    N/A N/A N/A MISG      29.96R
EMPORIA        MOSUNNY   77  64  64 S18G26    30.07S
LAWRENCE       CLOUDY    75  66  73 SE13      30.07S
MANHATTAN      SUNNY     80  66  62 S18G25    30.02R
MARYSVILLE     PTSUNNY   77  66  69 S16G24    30.01S
OLATHE IND     CLOUDY    71  66  84 SE9       30.09S
OLATHE EXE     CLOUDY    67  66  97 SE12      30.08S
SALINA         PTSUNNY   84  70  62 SE16      29.98R
TOPEKA BILLARD PTSUNNY   74  66  76 SE17G23   30.06F
TOPEKA FORBES  PTSUNNY   78  65  63 S18G25    30.06S
$$


USA.gov is the U.S. government's official web portal to all federal, state and local government web resources and services.